DELTA 1 DEB

Satellite information

Favourite Embed

Satellite Type and Status

DEBRISIN ORBIT

Key statistics

Satellite DELTA 1 DEB at a glance.

Uptime

17685

Days in orbit

Revolutions

≈ 13.9

Per day

Orbit

LEO

Low Earth Orbit

Inclination

29.1

Latest

Satellite identification and parameters

Extended collection of information and parameters for DELTA 1 DEB.

Object identification

Identified? True

Debris? True

Object name: DELTA 1 DEB

International designator: 1977-065GG

Object number (NORAD): 27575

Object ID (CCSDS): 27575

Country: UNITED STATES OF AMERICA (US)

Current information (Y/N): Y

RCS size: SMALL

Orbital parameters

Period: 103.447 minutes

Inclination: 29.1186 deg

SMA: 7299.69 km

Apoapsis: 1226.11 km

Periapsis: 617.001 km

RAAN: 333.2291 deg

Eccentricy: 0.04172158

Argument of periapsis: 327.5355 deg

Mean anomaly: 105.6786 deg

Mean motion: 13.92022082 rev/day

Mean motion (dot): 0.00017865 rev/day2

B* drag term: 0.00668847 1/REarth

Two-line elements (TLE)

Creation date: Dec. 13, 2025, 5:47 p.m.

Reference frame: TEME

Reference center: EARTH

Epoch: Dec. 13, 2025, 3:31 a.m. UTC

TLE line 0: 0 DELTA 1 DEB

TLE line 1: 1 27575U 77065GG 25347.14703365 .00017865 00000-0 66885-2 0 9993

TLE line 2: 2 27575 29.1186 333.2291 0417216 327.5355 105.6786 13.92022082365746

Live tracking on map

Real-time ground track for satellite DELTA 1 DEB.

In-orbit conjunctions

A list of the most updated potential collisions computed for object DELTA 1 DEB.

Target Orbit TCA Probability of collision Miss distance Type
CZ-6A DEB LEO 2025-07-24 23:00:32 0.0007038453 559.0 (m) DEBRIS
NOAA 17 DEB SSO 2024-12-25 17:20:34 0.0001213461 305.0 (m) DEBRIS

Associated space launch

Japanese meteorological satellite built by Hughes Space and Communications Company

DELTA 1 DEB was lifted into orbit during the mission ‘Delta 2914 | Himawari’, on board a Delta 2914 space rocket.

The launch took place on July 14, 1977, 10:39 a.m. from Space Launch Complex 17B.

For more information about the launch, click the button.

Launch to space Delta 2914 | Himawari
Delta 2914 | Himawari

Agency: N/A

Status: Launch Successful

Launch date: July 14, 1977, 10:39 a.m. UTC

Rocket: Delta 2914

Launch pad: Space Launch Complex 17B

Location: Cape Canaveral SFS, FL, USA

...

Latest news about this satellite

There are no fresh news available about this satellite. Check back as we update our databases every day.


Newsletter sign-up

Weekly statistics, charts and insights to help you stay on top of the space industry.